| time (UTC) | temp F | wind direction | speed knots | gust knots | rain 1hr in | rain 24hr in | rain mn in | humidity % | barometer mb |
| 20260504000120 | 74 | 27 | 6.1 | 12.2 | 0.00 | 0.00 | 0.00 | 26 | 1010.5 |
| 20260503234920 | 75 | 35 | 6.1 | 13.9 | 0.00 | 0.00 | 0.00 | 27 | 1010.6 |
| 20260503233757 | 76 | 34 | 7.0 | 10.4 | 0.00 | 0.00 | 0.00 | 27 | 1010.6 |
| 20260503232520 | 76 | 52 | 7.8 | 12.2 | 0.00 | 0.00 | 0.00 | 26 | 1010.8 |
| 20260503231325 | 77 | 40 | 6.1 | 12.2 | 0.00 | 0.00 | 0.00 | 25 | 1010.7 |
| 20260503230125 | 76 | 356 | 6.1 | 8.7 | 0.00 | 0.00 | 0.00 | 25 | 1010.7 |
| 20260503224920 | 76 | 357 | 7.0 | 12.2 | 0.00 | 0.00 | 0.00 | 25 | 1011.0 |
| 20260503223725 | 75 | 347 | 7.8 | 12.2 | 0.00 | 0.00 | 0.00 | 26 | 1011.1 |
| 20260503222540 | 76 | 6 | 6.1 | 10.4 | 0.00 | 0.00 | 0.00 | 26 | 1011.3 |
| 20260503221322 | 76 | 61 | 1.7 | 5.2 | 0.00 | 0.00 | 0.00 | 25 | 1011.6 |
| 20260503220117 | 76 | 77 | 4.3 | 8.7 | 0.00 | 0.00 | 0.00 | 26 | 1011.8 |
| 20260503214937 | 76 | 65 | 4.3 | 8.7 | 0.00 | 0.00 | 0.00 | 25 | 1011.9 |
| 20260503213743 | 75 | 328 | 5.2 | 10.4 | 0.00 | 0.00 | 0.00 | 26 | 1012.1 |
| 20260503212523 | 75 | 325 | 4.3 | 8.7 | 0.00 | 0.00 | 0.00 | 26 | 1012.2 |
| 20260503211317 | 75 | 286 | 8.7 | 15.6 | 0.00 | 0.00 | 0.00 | 27 | 1012.5 |
| 20260503210122 | 74 | 75 | 3.5 | 7.0 | 0.00 | 0.00 | 0.00 | 27 | 1012.4 |
| 20260503204943 | 73 | 33 | 5.2 | 8.7 | 0.00 | 0.00 | 0.00 | 28 | 1012.5 |
| 20260503203722 | 73 | 8 | 4.3 | 7.0 | 0.00 | 0.00 | 0.00 | 31 | 1012.7 |
| 20260503202518 | 73 | 24 | 4.3 | 7.0 | 0.00 | 0.00 | 0.00 | 33 | 1012.8 |
| 20260503201323 | 72 | 70 | 3.5 | 7.0 | 0.00 | 0.00 | 0.00 | 34 | 1013.0 |
| 20260503200122 | 71 | 332 | 6.1 | 10.4 | 0.00 | 0.00 | 0.00 | 35 | 1013.2 |
| 20260503194917 | 72 | 317 | 4.3 | 7.0 | 0.00 | 0.00 | 0.00 | 35 | 1013.4 |
| 20260503193723 | 70 | 346 | 3.5 | 7.0 | 0.00 | 0.00 | 0.00 | 35 | 1013.4 |
| 20260503192534 | 70 | 316 | 6.1 | 10.4 | 0.00 | 0.00 | 0.00 | 36 | 1013.6 |
| 20260503191323 | 69 | 351 | 4.3 | 5.2 | 0.00 | 0.00 | 0.00 | 36 | 1013.8 |
| 20260503190117 | 69 | 78 | 2.6 | 7.0 | 0.00 | 0.00 | 0.00 | 36 | 1014.0 |
| 20260503184923 | 68 | 3 | 5.2 | 8.7 | 0.00 | 0.00 | 0.00 | 39 | 1014.0 |
| 20260503183717 | 68 | 317 | 7.0 | 12.2 | 0.00 | 0.00 | 0.00 | 39 | 1014.1 |
| 20260503182522 | 67 | 323 | 5.2 | 8.7 | 0.00 | 0.00 | 0.00 | 40 | 1014.2 |
| 20260503181318 | 66 | 348 | 3.5 | 7.0 | 0.00 | 0.00 | 0.00 | 41 | 1014.2 |
| 20260503180125 | 65 | 4 | 3.5 | 5.2 | 0.00 | 0.00 | 0.00 | 42 | 1014.4 |
| 20260503174918 | 65 | 336 | 4.3 | 7.0 | 0.00 | 0.00 | 0.00 | 43 | 1014.5 |
| 20260503173723 | 64 | 15 | 5.2 | 8.7 | 0.00 | 0.00 | 0.00 | 44 | 1014.4 |
| 20260503172518 | 64 | 348 | 3.5 | 8.7 | 0.00 | 0.00 | 0.00 | 44 | 1014.5 |
| 20260503171323 | 63 | 332 | 5.2 | 10.4 | 0.00 | 0.00 | 0.00 | 44 | 1014.5 |
| 20260503170117 | 63 | 329 | 7.0 | 8.7 | 0.00 | 0.00 | 0.00 | 45 | 1014.6 |
| 20260503160122 | 60 | 339 | 3.5 | 5.2 | 0.00 | 0.00 | 0.00 | 48 | 1014.8 |
| 20260503150143 | 57 | 302 | 1.7 | 5.2 | 0.00 | 0.00 | 0.00 | 49 | 1014.8 |
| 20260503140117 | 55 | 0.0 | 0.0 | 0.00 | 0.00 | 0.00 | 51 | 1014.7 | |
| 20260503131322 | 53 | 0.0 | 0.0 | 0.00 | 0.00 | 0.00 | 53 | 1014.2 | |
| 20260503130117 | 53 | 0.0 | 0.0 | 0.00 | 0.00 | 0.00 | 52 | 1014.2 | |
| 20260503120122 | 53 | 228 | 1.7 | 3.5 | 0.00 | 0.00 | 0.00 | 54 | 1014.5 |
| 20260503110117 | 54 | 237 | 1.7 | 1.7 | 0.00 | 0.00 | 0.00 | 53 | 1014.4 |
| 20260503100137 | 55 | 124 | 3.5 | 3.5 | 0.00 | 0.00 | 0.00 | 52 | 1014.2 |
| 20260503081227 | 59 | 29 | 0.9 | 1.7 | 0.00 | 0.00 | 0.00 | 46 | 1014.5 |
| 20260503072431 | 59 | 0.0 | 0.0 | 0.00 | 0.00 | 0.00 | 47 | 1014.3 | |
| 20260503071251 | 57 | 348 | 1.7 | 3.5 | 0.00 | 0.00 | 0.00 | 48 | 1014.5 |
| 20260503054839 | 58 | 0.0 | 0.0 | 0.00 | 0.00 | 0.00 | 51 | 1015.0 | |
| 20260503053631 | 59 | 325 | 0.0 | 1.7 | 0.00 | 0.00 | 0.00 | 49 | 1014.9 |
| 20260503052427 | 58 | 260 | 0.9 | 1.7 | 0.00 | 0.00 | 0.00 | 50 | 1015.2 |
| 20260503051227 | 58 | 226 | 1.7 | 1.7 | 0.00 | 0.00 | 0.00 | 51 | 1015.1 |
| 20260503050027 | 60 | 0.0 | 0.0 | 0.00 | 0.00 | 0.00 | 49 | 1014.8 | |
| 20260503044827 | 59 | 305 | 1.7 | 3.5 | 0.00 | 0.00 | 0.00 | 51 | 1014.7 |
| 20260503043647 | 59 | 301 | 1.7 | 3.5 | 0.00 | 0.00 | 0.00 | 51 | 1015.0 |
| 20260503042427 | 59 | 306 | 4.3 | 7.0 | 0.00 | 0.00 | 0.00 | 52 | 1014.8 |
| 20260503041231 | 59 | 327 | 5.2 | 8.7 | 0.00 | 0.00 | 0.00 | 53 | 1014.3 |
| 20260503040032 | 59 | 353 | 5.2 | 7.0 | 0.00 | 0.00 | 0.00 | 53 | 1014.2 |
| 20260503034827 | 59 | 2 | 5.2 | 7.0 | 0.00 | 0.00 | 0.00 | 52 | 1014.3 |
| 20260503033627 | 60 | 346 | 3.5 | 5.2 | 0.00 | 0.00 | 0.00 | 51 | 1014.0 |
| 20260503032427 | 60 | 345 | 4.3 | 8.7 | 0.00 | 0.00 | 0.00 | 51 | 1013.9 |
| 20260503031226 | 60 | 1 | 2.6 | 3.5 | 0.00 | 0.00 | 0.00 | 51 | 1013.8 |
| 20260503030027 | 61 | 311 | 6.1 | 8.7 | 0.00 | 0.00 | 0.00 | 50 | 1013.6 |
| 20260503024827 | 60 | 313 | 7.0 | 10.4 | 0.00 | 0.00 | 0.00 | 51 | 1013.5 |
| 20260503023628 | 60 | 4 | 5.2 | 7.0 | 0.00 | 0.00 | 0.00 | 51 | 1013.5 |
| 20260503022432 | 61 | 307 | 7.8 | 10.4 | 0.00 | 0.00 | 0.00 | 49 | 1013.6 |
| 20260503021232 | 62 | 9 | 7.0 | 10.4 | 0.00 | 0.00 | 0.00 | 48 | 1013.2 |
| 20260503020128 | 63 | 8 | 8.7 | 12.2 | 0.00 | 0.00 | 0.00 | 45 | 1013.1 |
| 20260503014852 | 64 | 290 | 13.0 | 19.1 | 0.00 | 0.00 | 0.00 | 44 | 1013.0 |
| 20260503013704 | 64 | 320 | 7.0 | 13.9 | 0.00 | 0.00 | 0.00 | 44 | 1012.8 |
| 20260503012427 | 64 | 328 | 7.0 | 13.9 | 0.00 | 0.00 | 0.00 | 45 | 1012.7 |
| 20260503011227 | 64 | 342 | 7.8 | 12.2 | 0.00 | 0.00 | 0.00 | 45 | 1012.7 |
| 20260503010031 | 63 | 331 | 8.7 | 13.9 | 0.00 | 0.00 | 0.00 | 46 | 1013.0 |
| 20260503004832 | 63 | 345 | 3.5 | 8.7 | 0.00 | 0.00 | 0.00 | 48 | 1013.0 |
| 20260503003652 | 61 | 358 | 7.0 | 13.9 | 0.00 | 0.00 | 0.00 | 49 | 1012.8 |
| 20260503002432 | 61 | 299 | 5.2 | 8.7 | 0.00 | 0.00 | 0.00 | 49 | 1012.9 |
| 20260503001231 | 61 | 331 | 5.2 | 7.0 | 0.00 | 0.00 | 0.00 | 48 | 1012.9 |